This is the latest recevied weather packets stored in our database for station/object N7NIP. If no packets are shown the sender has not sent any weather packets the latest 10 day(s).
| Time | Temp. | Humidity | Pressure | Rain* | Wind** | Luminosity | Snow |
|---|---|---|---|---|---|---|---|
| 1777487974 | 15° C | 64% | 1038.3 hPa | 0 mm | - | 842 W/m² | - |
| 1777487671 | 15° C | 63% | 1038.4 hPa | 0 mm | - | 834 W/m² | - |
| 1777487368 | 15° C | 64% | 1038.7 hPa | 0 mm | - | 826 W/m² | - |
| 1777487066 | 15° C | 64% | 1038.7 hPa | 0 mm | - | 822 W/m² | - |
| 1777486761 | 14.44° C | 66% | 1038.7 hPa | 0 mm | - | 813 W/m² | - |
| 1777486460 | 14.44° C | 66% | 1038.7 hPa | 0 mm | - | 717 W/m² | - |
| 1777486157 | 14.44° C | 66% | 1038.7 hPa | 0 mm | - | 799 W/m² | - |
| 1777485854 | 14.44° C | 68% | 1038.7 hPa | 0 mm | - | 791 W/m² | - |
| 1777485555 | 13.89° C | 67% | 1038.7 hPa | 0 mm | - | 771 W/m² | - |
| 1777485251 | 13.89° C | 68% | 1038.7 hPa | 0 mm | - | 766 W/m² | - |
| 1777484947 | 13.89° C | 69% | 1038.8 hPa | 0 mm | - | 755 W/m² | - |
| 1777484645 | 14.44° C | 68% | 1038.8 hPa | 0 mm | - | 740 W/m² | - |
| 1777484341 | 13.89° C | 67% | 1038.9 hPa | 0 mm | - | 723 W/m² | - |
| 1777484036 | 13.89° C | 71% | 1038.7 hPa | 0 mm | - | 727 W/m² | - |
| 1777483734 | 13.89° C | 68% | 1039 hPa | 0 mm | - | 700 W/m² | - |
| 1777483429 | 13.89° C | 68% | 1038.9 hPa | 0 mm | - | 687 W/m² | - |
| 1777483124 | 13.33° C | 68% | 1039.1 hPa | 0 mm | - | 673 W/m² | - |
| 1777482822 | 13.33° C | 68% | 1038.8 hPa | 0 mm | - | 661 W/m² | - |
| 1777482517 | 13.33° C | 70% | 1039 hPa | 0 mm | - | 642 W/m² | - |
| 1777482216 | 13.33° C | 75% | 1038.9 hPa | 0 mm | - | 630 W/m² | - |
| 1777481912 | 12.78° C | 73% | 1039.1 hPa | 0 mm | - | 609 W/m² | - |
| 1777481610 | 13.33° C | 71% | 1039.2 hPa | 0 mm | - | 600 W/m² | - |
| 1777481307 | 12.78° C | 75% | 1039.2 hPa | 0 mm | - | 585 W/m² | - |
| 1777481003 | 12.78° C | 73% | 1039.2 hPa | 0 mm | - | 565 W/m² | - |
| 1777480700 | 13.33° C | 72% | 1039.3 hPa | 0 mm | - | 548 W/m² | - |
* Rain latest hour (hover to see other rain measurements)
** Current wind speed in m/s (hover to see current wind gust speed)